Orbital Elements at Epoch 2459000.5 (2020-May-31.0) TDB
Reference: JPL 22 (heliocentric ecliptic J2000)
Element | Value | Uncertainty (1-sigma) | Units |
e | .1169383648425784 | 6.0723e-08 | |
a | 3.019888197224836 | 2.1037e-08 | au |
q | 2.666747409433962 | 1.9549e-07 | au |
i | 1.209640468397112 | 4.4251e-06 | deg |
node | 197.240977886527 | 0.00018337 | deg |
peri | 140.7029755496169 | 0.0001843 | deg |
M | 327.3345807057365 | 1.5403e-05 | deg |
tp | 2459174.428383405883 (2020-Nov-20.92838341) | 8.1706e-05 | TDB |
period | 1916.834970402898 5.25 | 2.003e-05 5.484e-08 | d yr |
n | .1878095952748253 | 1.9625e-09 | deg/d |
Q | 3.37302898501571 | 2.3497e-08 | au |
|
| | Orbit Determination Parameters
Additional Information
|